Snowfall_Accumulation
0.0 0.0 0.0 0.0 0.0 0.0 0.0 0.0 0.0 0.0 0.0 0.0 0.0 0.0 0.0 0.0 0.0 0.0 0.0 0.0 0.0 0.0 0.0 0.0 0.0 0.1 0.0 0.0 0.0 0.0 0.1 0.0 0.1 0.1 0.1 0.1 0.1 0.0 0.0 0.0 0.0 0.0 0.0
0.0 0.0 0.0 0.0 0.0 0.0 0.0 0.0 0.0 0.0 0.0 0.0 0.0 0.0 0.0 0.0 0.0 0.0 0.0 0.0 0.0 0.0 0.0 0.0 0.1 0.1 0.0 0.1 0.0 0.1 0.1 0.2 0.6 0.7 0.2 0.2 0.1 0.1 0.0 0.0 0.0 0.0 0.0
0.0 0.0 0.0 0.0 0.0 0.0 0.0 0.0 0.0 0.0 0.0 0.0 0.0 0.0 0.0 0.0 0.0 0.0 0.0 0.0 0.0 0.0 0.1 0.1 0.1 0.1 0.1 0.1 0.2 0.2 0.3 0.4 0.6 0.9 0.4 0.1 0.1 0.0 0.1 0.0 0.0 0.0 0.0
0.0 0.0 0.0 0.0 0.0 0.0 0.0 0.0 0.0 0.0 0.0 0.0 0.0 0.0 0.0 0.0 0.0 0.0 0.0 0.0 0.1 0.2 0.3 0.3 0.4 0.3 0.4 0.4 0.4 0.4 0.7 0.7 0.8 1.1 1.3 0.8 0.6 0.3 0.3 0.2 0.1 0.1 0.1
0.0 0.0 0.0 0.0 0.0 0.0 0.0 0.0 0.0 0.0 0.0 0.0 0.0 0.0 0.0 0.0 0.1 0.1 0.3 0.3 0.4 0.3 0.3 0.3 0.2 0.2 0.1 0.2 0.4 0.7 0.9 1.2 1.9 2.2 2.0 1.3 0.7 0.4 0.4 0.3 0.4 0.3 0.1
0.0 0.0 0.0 0.0 0.0 0.0 0.0 0.0 0.0 0.0 0.0 0.0 0.0 0.1 0.1 0.0 0.0 0.2 0.3 0.2 0.2 0.2 0.2 0.5 0.3 0.4 0.3 0.2 0.4 0.7 1.4 2.2 2.8 3.1 2.7 1.7 0.6 0.4 0.4 0.6 1.0 1.5 1.1
0.0 0.0 0.0 0.0 0.0 0.0 0.0 0.0 0.0 0.0 0.1 0.1 0.1 0.3 0.2 0.0 0.0 0.2 0.3 0.4 0.4 0.5 0.6 0.6 0.5 0.4 0.4 0.4 0.4 0.8 1.3 1.7 2.1 2.1 1.8 0.9 0.7 0.6 1.5 2.6 2.6 2.9 2.1
0.0 0.0 0.0 0.0 0.1 0.3 0.3 0.3 0.4 0.3 0.4 0.3 0.6 0.4 0.4 0.1 0.1 0.1 0.2 0.6 0.6 0.7 0.5 0.4 0.5 0.4 0.3 0.6 1.1 1.5 1.0 0.6 0.5 0.5 0.6 0.6 0.8 1.0 2.3 4.2 4.1 3.0 1.3
0.0 0.1 0.2 0.3 0.3 0.3 0.4 0.3 0.4 0.4 0.4 0.4 0.5 0.6 0.4 0.3 0.0 0.2 0.3 0.5 0.5 0.4 0.4 0.3 0.5 0.4 0.5 1.4 2.2 2.0 0.9 0.2 0.1 0.4 0.6 0.6 0.7 0.7 1.0 2.9 4.0 4.0 2.6
0.2 0.3 0.2 0.0 0.5 0.5 0.6 0.4 0.5 0.5 0.6 0.6 0.8 0.6 0.4 0.5 0.3 0.1 0.4 0.4 0.5 0.5 0.5 0.4 0.4 0.5 0.9 1.9 2.0 1.6 0.8 0.2 0.6 0.5 0.2 0.1 0.1 0.1 0.4 2.1 5.4 8.1 5.7
0.2 0.0 0.1 0.2 0.4 0.7 0.6 0.4 0.6 0.4 0.6 0.7 0.7 0.7 0.6 0.5 0.1 0.1 0.2 0.5 0.7 0.8 0.7 0.4 0.3 0.8 1.6 1.7 1.3 0.5 0.5 1.4 1.2 0.4 0.2 0.1 0.1 0.2 0.3 0.8 2.9 8.3 10.6
0.2 0.2 0.4 0.5 0.5 0.5 0.3 0.5 0.8 0.9 0.7 0.6 0.6 0.6 0.6 0.2 0.0 0.1 0.2 0.6 1.0 1.1 0.7 0.4 0.6 1.1 1.1 0.6 0.2 0.3 0.8 0.7 0.3 0.4 0.4 0.4 0.5 0.6 0.7 1.2 1.8 3.5 6.2
0.3 0.3 0.4 0.4 0.3 0.4 0.2 0.5 0.5 0.5 0.5 0.4 0.3 0.3 0.3 0.1 0.1 0.1 0.2 0.7 1.0 0.9 0.7 0.9 1.0 0.7 0.3 0.1 0.0 0.2 0.2 0.3 1.0 1.6 1.2 0.8 0.7 1.1 1.5 2.2 2.5 2.9 3.3
0.5 0.5 0.5 0.4 0.4 0.3 0.3 0.2 0.3 0.3 0.3 0.2 0.1 0.1 0.1 0.1 0.1 0.1 0.4 0.6 0.7 0.8 0.8 0.7 0.4 0.1 0.1 0.1 0.1 0.1 0.2 0.7 2.1 3.2 2.6 1.5 1.4 1.9 3.4 4.9 6.1 6.5 7.7
0.3 0.4 0.3 0.3 0.3 0.2 0.2 0.1 0.2 0.1 0.0 0.1 0.1 0.1 0.2 0.2 0.2 0.8 1.1 0.9 1.1 1.2 1.0 0.2 0.1 0.1 0.1 0.1 0.1 0.2 0.4 0.8 1.9 2.8 3.5 3.9 3.9 4.7 6.5 8.1 9.1 9.3 8.8
0.4 0.2 0.2 0.2 0.2 0.2 0.2 0.2 0.1 0.1 0.0 0.0 0.0 0.2 0.2 0.3 0.6 0.8 1.0 1.2 1.2 0.9 0.5 0.2 0.2 0.3 0.3 0.4 0.5 0.6 0.6 1.3 2.7 4.0 4.7 5.8 7.3 8.1 9.0 9.0 9.1 8.8 7.7
0.2 0.2 0.2 0.1 0.1 0.1 0.1 0.1 0.1 0.0 0.0 0.0 0.0 0.1 0.2 0.3 0.5 0.6 0.9 1.0 0.5 0.3 0.5 0.6 0.7 0.7 0.8 0.9 1.1 1.6 1.8 2.1 3.8 5.7 7.5 8.6 9.8 10.1 10.0 9.3 8.0 6.7 5.2
0.1 0.1 0.1 0.0 0.0 0.0 0.0 0.1 0.1 0.1 0.1 0.0 0.0 0.0 0.1 0.2 0.3 0.5 0.8 0.5 0.1 0.5 1.2 1.9 2.1 1.4 1.5 1.7 2.4 3.3 4.1 4.7 5.8 7.9 8.7 9.9 11.2 11.7 10.2 8.2 6.4 5.0 3.9
0.2 0.1 0.1 0.1 0.1 0.1 0.1 0.1 0.2 0.2 0.2 0.1 0.1 0.0 0.0 0.1 0.2 0.3 0.3 0.2 0.5 0.7 1.3 2.0 2.4 2.1 2.1 3.1 3.9 5.0 6.5 7.8 8.6 9.8 10.3 11.2 11.7 11.1 8.6 5.8 3.9 2.5 2.3
0.1 0.2 0.2 0.1 0.2 0.2 0.2 0.2 0.3 0.3 0.4 0.3 0.2 0.1 0.1 0.5 0.5 0.2 0.1 0.2 0.5 0.7 1.0 1.6 2.0 2.1 2.4 3.8 4.9 6.2 7.8 8.8 9.6 10.4 11.1 11.2 10.1 8.5 6.6 4.0 2.9 2.7 2.4
0.2 0.2 0.3 0.2 0.2 0.2 0.3 0.4 0.4 0.6 0.6 0.5 0.3 0.2 0.6 0.9 0.6 0.3 0.3 0.4 0.5 0.7 0.9 1.5 1.9 2.5 3.3 4.7 6.1 6.9 8.1 9.1 10.3 11.3 11.0 9.5 7.5 5.6 3.6 3.1 2.9 2.9 2.9
0.3 0.2 0.4 0.3 0.3 0.4 0.5 0.6 0.7 0.7 0.6 0.5 0.4 0.3 0.6 0.6 0.4 0.5 0.5 0.4 0.4 0.5 0.8 1.4 1.8 2.4 4.6 7.3 9.5 10.1 9.5 9.2 9.6 10.2 9.3 7.2 5.3 3.9 3.4 3.3 3.2 3.1 3.1
0.4 0.5 0.5 0.5 0.6 0.7 0.9 0.7 0.7 0.7 0.7 0.6 0.6 0.6 0.6 0.7 0.6 0.6 0.5 0.4 0.5 0.6 0.6 1.2 1.9 2.4 4.0 7.2 10.4 13.6 14.5 12.6 11.2 10.9 10.4 8.2 5.7 4.6 4.5 4.4 3.8 3.6 3.0
0.5 0.6 0.7 0.8 0.9 1.0 0.9 0.8 0.8 0.8 0.8 0.8 0.7 0.7 0.7 0.7 0.6 0.5 0.5 0.5 0.6 0.6 0.7 1.3 2.0 2.8 4.2 7.4 10.2 12.0 13.4 14.2 14.5 13.4 12.0 10.5 7.7 5.7 4.9 4.4 3.5 3.1 2.9
0.9 0.9 1.0 1.0 1.0 0.9 0.9 0.9 1.0 0.9 1.0 1.0 1.0 0.9 0.8 0.8 0.7 0.6 0.6 0.7 0.8 0.7 0.7 1.2 2.2 3.5 5.2 7.4 9.8 11.4 11.9 11.8 10.9 9.9 8.8 7.6 6.2 4.9 4.6 4.3 3.6 3.0 2.8
1.1 1.2 1.2 1.1 1.1 1.1 1.1 1.2 1.2 1.2 1.2 1.2 1.2 1.1 1.1 1.0 0.9 0.8 0.9 1.0 1.0 1.0 0.9 1.1 1.8 3.6 5.6 7.6 9.1 10.9 10.8 8.8 6.3 4.9 5.1 5.9 5.4 4.5 4.2 4.4 3.8 3.4 3.2